Location: Ethel Rock
(53.4667°N, 4.5667°W)
Time: 00:21:10
(UTC+00:00)

USA 238 - Pass Details

Date: 24 October 2020
Orbit: 1003 x 1209 km, 63.4° (Epoch: 22 November)

Event Time Altitude Azimuth Distance (km) Brightness Sun altitude
Exits shadow 05:32:51 13° 240° (WSW) 2,598 5.2 -13.9°
Maximum altitude 05:38:52 71° 323° (NW) 1,124 3.7 -13.0°
Drops below altitude 10° 05:45:54 10° 48° (NE) 2,977 6.7 -12.0°
Sets 05:48:41 0° 51° (NE) 3,968 7.4 -11.6°
